[[{"header":{"parameterUnit":"m.s-1","parameterCategory":2,"la1":30.2991,"la2":30.254,"lo1":-89.0895,"lo2":-89.0444,"dy":0.0017,"dx":0.0017,"nx":28,"ny":28,"refTime":"2023-10-28T03:00:00:Z","depth":"0","parameterNumber":2,"parameterNumberName":"U-component_of_CURRENTS"},"data":[0,0,0,0,0,0,0,0,0,0,0,0,0,0,0,0,0,0,0,0,0,0,0,0,0,0,0,0,0,0,0,0,0,0,0,0,0,0,0,0,0,0,0,0,0,0,0,0,0,0,0,0,0,0,0,0,0,0,0.3402,0.3402,0,0.3417,0.3416,0.3416,0.3414,0.3414,0.3414,0.3414,0.3428,0.3429,0.3429,0,0,0,0,0,0,0,0,0,0,0,0,0,0.3384,0.3384,0.3401,0.3402,0.3403,0.3417,0.3416,0.3416,0.3414,0.3414,0.3414,0.3414,0.3428,0.3429,0.3429,0,0,0,0,0,0,0,0,0,0,0,0,0,0.3391,0.3384,0.3401,0.3406,0.3406,0.3417,0.3416,0.3416,0.3414,0.3414,0.3414,0.3414,0.3428,0.3429,0.3429,0.343,0,0,0.3431,0.3431,0,0,0,0,0,0,0,0,0.3391,0.3391,0.3404,0.3405,0.3406,0.3417,0.3416,0.3422,0.3414,0.3407,0.3414,0.3414,0.3427,0.3427,0.3425,0.3431,0.3431,0.3431,0.3431,0.3431,0.3431,0,0,0,0,0,0,0,0.339,0.3391,0.3404,0.3405,0.3406,0.3412,0.3412,0.3417,0.3413,0.3408,0.3409,0.3416,0.3427,0.3424,0.3425,0.3432,0.3431,0.3431,0.3431,0.3431,0.3485,0.3487,0,0,0,0,0,0,0.3395,0.339,0.3403,0.3405,0.3403,0.3412,0.3413,0.341,0.3413,0.3415,0.3416,0.3416,0.3423,0.3425,0.3426,0.3473,0.3431,0.3432,0.3432,0.3484,0.3486,0.3487,0,0,0,0,0,0,0.3394,0.3395,0.3403,0.3401,0.3403,0.3413,0.341,0.3411,0.3413,0.342,0.3421,0.3419,0.3424,0.3425,0.3436,0.3472,0.3432,0.3432,0.3483,0.3485,0.3486,0.3539,0,0,0,0,0,0,0.3393,0.3395,0.3393,0.3401,0.3403,0.342,0.341,0.3411,0.3419,0.3419,0.3423,0.3424,0.3424,0.3435,0.3436,0.3472,0.3433,0.3482,0.3484,0.3486,0.3535,0.3542,0.3547,0,0,0,0,0,0.3392,0.3389,0.3392,0.3394,0.34,0.3421,0.3423,0.3427,0.3419,0.3428,0.3426,0.3424,0.345,0.3436,0.3437,0.3474,0.348,0.3483,0.3486,0.3533,0.3541,0.3547,0,0,0,0,0,0,0.3374,0.3389,0.3393,0.3392,0.3412,0.3422,0.343,0.343,0.3433,0.3435,0.3429,0.3431,0.3462,0.3454,0.3438,0.3496,0.3469,0.3472,0.3505,0.3512,0.3518,0.3537,0.3433,0,0,0,0,0,0.3372,0.3377,0.3396,0.3397,0.3409,0.3419,0.3426,0.3435,0.3442,0.3443,0.3445,0.3452,0.3473,0.3479,0.3493,0.3512,0.3521,0.354,0.3546,0.3551,0.3567,0.3605,0.3617,0.3495,0.3495,0.3495,0,0,0.3364,0.3375,0.3376,0.3395,0.3408,0.3429,0.3423,0.3444,0.3464,0.3445,0.3464,0.3475,0.3484,0.3516,0.3529,0.3512,0.3588,0.3554,0.3559,0.3573,0.3609,0.3621,0.3632,0.3497,0.3497,0.3497,0,0,0.3355,0.3365,0.3367,0.339,0.3422,0.3439,0.3447,0.3466,0.348,0.3499,0.3503,0.3531,0.354,0.3566,0.3577,0.3622,0.3623,0.3628,0.367,0.3706,0.3717,0.3726,0.3747,0.3757,0.3626,0.3626,0.3626,0,0.3344,0.3347,0.3373,0.3389,0.3411,0.3444,0.346,0.3486,0.3506,0.3526,0.3514,0.3564,0.357,0.3626,0.3648,0.3639,0.3652,0.3641,0.3715,0.3725,0.3734,0.3752,0.3763,0.3629,0.3628,0.3628,0.3628,0,0.3336,0.3349,0.3358,0.3391,0.3422,0.3445,0.3494,0.3522,0.3541,0.3567,0.3623,0.3637,0.3666,0.3682,0.3679,0.3754,0.374,0.3723,0.3698,0.3749,0.3765,0.3776,0.3633,0.3632,0.3631,0.363,0,0,0.3273,0.3336,0.3336,0.3359,0.3426,0.3448,0.3505,0.356,0.3598,0.3636,0.3681,0.3734,0.375,0.3765,0.3776,0.3815,0.3886,0.38,0.3801,0.3822,0.3962,0.3809,0.3806,0.3882,0.3885,0.3886,0.3946,0,0.3253,0.3276,0.3323,0.3361,0.338,0.3452,0.3502,0.3568,0.3621,0.3677,0.3732,0.3779,0.3781,0.38,0.3846,0.3877,0.3918,0.3871,0.3909,0.391,0.3769,0.3814,0.3667,0.3695,0.3957,0.3958,0.396,0,0.3206,0.324,0.3259,0.3348,0.3365,0.3399,0.3492,0.3547,0.3656,0.3697,0.3771,0.3817,0.3897,0.3881,0.3974,0.3944,0.3967,0.3987,0.3989,0.3838,0.3776,0.3687,0.3705,0.3633,0.3976,0.3975,0.3974,0,0.3109,0.3188,0.3201,0.3228,0.3334,0.3365,0.3429,0.354,0.3591,0.3713,0.3752,0.3862,0.3897,0.3966,0.4012,0.4002,0.4101,0.4081,0.3971,0.396,0.3837,0.3809,0.3789,0.4157,0.4157,0.4157,0.4157,0,0.3034,0.3047,0.3158,0.3156,0.3204,0.3308,0.3365,0.3445,0.3564,0.3623,0.3748,0.38,0.3922,0.3991,0.4037,0.4025,0.4117,0.3991,0.3969,0.3846,0.382,0.3751,0.3706,0.4159,0.4159,0.4158,0.4158,0,0.289,0.2958,0.2984,0.3101,0.3141,0.3168,0.3303,0.3348,0.3475,0.3554,0.3592,0.3756,0.3833,0.3934,0.4039,0.4014,0.3921,0.4024,0.3859,0.3814,0.3583,0.3545,0.3357,0.3259,0.3899,0.3895,0.3893,0,0.2818,0.2808,0.2909,0.2933,0.2977,0.3054,0.3103,0.3263,0.3321,0.351,0.353,0.3659,0.3717,0.3807,0.382,0.3857,0.3792,0.3714,0.3654,0.3552,0.3498,0.3375,0.3301,0.3529,0.3523,0.3519,0.3515,0,0.2687,0.2709,0.2733,0.2782,0.2829,0.2896,0.2987,0.3027,0.3213,0.3275,0.3383,0.3459,0.3561,0.3527,0.3562,0.3576,0.3501,0.3612,0.3573,0.3251,0.3055,0.2955,0.3508,0.3474,0.3478,0.3481,0.3483,0.3485,0.2594,0.257,0.2601,0.2629,0.2681,0.2726,0.2729,0.2837,0.2899,0.2987,0.3163,0.3202,0.3278,0.3296,0.3277,0.3165,0.3177,0.309,0.3072,0.2974,0.28,0.3232,0.3117,0.3119,0.312,0.3122,0.3123,0,0.2497,0.246,0.2466,0.2485,0.247,0.2563,0.2632,0.2618,0.2621,0.2757,0.282,0.2873,0.2837,0.2895,0.284,0.2696,0.2604,0.2621,0.2477,0.2448,0.2912,0.2817,0.2548,0.2548,0.2548,0.2548,0.2548,0.2548,0.2453,0.2372,0.2353,0.228,0.2289,0.2248,0.2259,0.2257,0.2325,0.2338,0.2369,0.2451,0.2597,0.2575,0.2459,0.2396,0.2228,0.206,0.2089,0.2493,0.2538,0.2581,0.2485,0.2151,0.215,0.1552,0.1547,0.1544]},{"header":{"parameterUnit":"m.s-1","parameterCategory":2,"la1":30.2991,"la2":30.254,"lo1":-89.0895,"lo2":-89.0444,"dy":0.0017,"dx":0.0017,"nx":28,"ny":28,"refTime":"2023-10-28T03:00:00:Z","depth":"0","parameterNumber":3,"parameterNumberName":"V-component_of_CURRENTS"},"data":[0,0,0,0,0,0,0,0,0,0,0,0,0,0,0,0,0,0,0,0,0,0,0,0,0,0,0,0,0,0,0,0,0,0,0,0,0,0,0,0,0,0,0,0,0,0,0,0,0,0,0,0,0,0,0,0,0,0,-0.0104,-0.0105,0,-0.0176,-0.0176,-0.0177,-0.0221,-0.0221,-0.0221,-0.0221,-0.0378,-0.0382,-0.0386,0,0,0,0,0,0,0,0,0,0,0,0,0,-0.0044,-0.0045,-0.0104,-0.0105,-0.0106,-0.0175,-0.0177,-0.0178,-0.0221,-0.0221,-0.0221,-0.0221,-0.0376,-0.0381,-0.0386,0,0,0,0,0,0,0,0,0,0,0,0,0,-0.0088,-0.0045,-0.0104,-0.0136,-0.0139,-0.0175,-0.0177,-0.0178,-0.022,-0.0221,-0.0221,-0.0221,-0.0375,-0.0381,-0.0387,-0.0418,0,0,-0.0405,-0.0408,0,0,0,0,0,0,0,0,-0.0086,-0.0091,-0.013,-0.0134,-0.0138,-0.0189,-0.0213,-0.0262,-0.022,-0.019,-0.0221,-0.0221,-0.0322,-0.0332,-0.0345,-0.0426,-0.0432,-0.0405,-0.0409,-0.0412,-0.0413,0,0,0,0,0,0,0,-0.0083,-0.0088,-0.0133,-0.0131,-0.0136,-0.0159,-0.0166,-0.0222,-0.0256,-0.0193,-0.0196,-0.0203,-0.0325,-0.0339,-0.0349,-0.0435,-0.0405,-0.0411,-0.0414,-0.0417,-0.0549,-0.0549,0,0,0,0,0,0,-0.0071,-0.0085,-0.0131,-0.0135,-0.0111,-0.016,-0.0167,-0.0173,-0.0253,-0.0265,-0.0203,-0.0205,-0.0328,-0.0342,-0.0355,-0.0388,-0.0412,-0.0417,-0.0421,-0.055,-0.0549,-0.0549,0,0,0,0,0,0,-0.0069,-0.0074,-0.0128,-0.0111,-0.012,-0.016,-0.0167,-0.0174,-0.0187,-0.026,-0.0273,-0.0208,-0.0329,-0.0346,-0.0391,-0.0395,-0.042,-0.0425,-0.055,-0.055,-0.0549,-0.046,0,0,0,0,0,0,-0.0067,-0.0073,-0.0067,-0.0111,-0.012,-0.0143,-0.0167,-0.0175,-0.0191,-0.0195,-0.0269,-0.0284,-0.033,-0.0382,-0.0397,-0.0403,-0.043,-0.055,-0.055,-0.0549,-0.0463,-0.0457,-0.0452,0,0,0,0,0,-0.0065,-0.0053,-0.0066,-0.0071,-0.0112,-0.0143,-0.015,-0.018,-0.0191,-0.0194,-0.0236,-0.0282,-0.0393,-0.0386,-0.0405,-0.0412,-0.055,-0.055,-0.0549,-0.0466,-0.0458,-0.0452,0,0,0,0,0,0,-0.0024,-0.0057,-0.0073,-0.0072,-0.0103,-0.015,-0.015,-0.0175,-0.021,-0.0213,-0.0279,-0.0297,-0.0338,-0.0387,-0.0379,-0.045,-0.048,-0.0483,-0.041,-0.0404,-0.0398,-0.0362,-0.0435,0,0,0,0,0,-0.0012,-0.0012,-0.0053,-0.0053,-0.0063,-0.0106,-0.012,-0.0145,-0.0184,-0.0199,-0.0247,-0.0303,-0.0352,-0.0385,-0.0434,-0.0476,-0.0484,-0.0494,-0.0488,-0.0483,-0.0465,-0.0475,-0.0467,-0.0549,-0.0549,-0.0549,0,0,0.0003,-0.0015,-0.0015,-0.0045,-0.0068,-0.0074,-0.0115,-0.0133,-0.0139,-0.0213,-0.023,-0.0284,-0.0357,-0.0395,-0.042,-0.0437,-0.0461,-0.0482,-0.0477,-0.0463,-0.0473,-0.0465,-0.0458,-0.0549,-0.0549,-0.0549,0,0,0.0038,0.0019,0.0034,0.0011,-0.002,-0.0047,-0.005,-0.0093,-0.0112,-0.0141,-0.0192,-0.0237,-0.0315,-0.0361,-0.0398,-0.0393,-0.0426,-0.042,-0.0368,-0.0377,-0.037,-0.0363,-0.0342,-0.0335,-0.0422,-0.0421,-0.0421,0,0.006,0.0068,0.0032,0.0036,0.0028,-0.0029,-0.0019,-0.0048,-0.0101,-0.0109,-0.0135,-0.0226,-0.0296,-0.0337,-0.0338,-0.038,-0.0375,-0.0386,-0.0366,-0.036,-0.0355,-0.0336,-0.0329,-0.0417,-0.0418,-0.0418,-0.0419,0,0.0101,0.0106,0.0112,0.0102,0.0088,0.0084,0.004,0.0028,-0.0002,-0.0035,-0.0072,-0.0153,-0.0206,-0.0244,-0.0294,-0.0303,-0.0306,-0.035,-0.0375,-0.0341,-0.0323,-0.0317,-0.0411,-0.0413,-0.0414,-0.0415,0,0,0.0158,0.0146,0.0151,0.0159,0.0122,0.0117,0.0111,0.0091,0.0101,0.004,0.0051,-0.0052,-0.0092,-0.0134,-0.0206,-0.0226,-0.0196,-0.0267,-0.0269,-0.0228,-0.0181,-0.0187,-0.0181,-0.0231,-0.023,-0.0229,-0.0174,0,0.0204,0.0238,0.0214,0.0241,0.0254,0.0207,0.0211,0.0182,0.0152,0.0148,0.0065,0.0041,-0.0053,-0.0071,-0.0107,-0.0173,-0.018,-0.0205,-0.0235,-0.0235,-0.0231,-0.0175,-0.0148,-0.0098,-0.0169,-0.0168,-0.0167,0,0.0266,0.0274,0.0318,0.032,0.0323,0.0331,0.0337,0.0329,0.0297,0.0277,0.0236,0.0175,0.0126,0.0049,-0.0025,-0.0032,-0.0093,-0.0143,-0.0143,-0.0173,-0.0231,-0.015,-0.0085,-0.018,-0.0159,-0.0159,-0.016,0,0.0344,0.0354,0.0396,0.0394,0.0383,0.0403,0.0399,0.0377,0.039,0.037,0.039,0.0307,0.0293,0.0201,0.0079,0.0038,0.0022,-0.0054,-0.0109,-0.0109,-0.0105,-0.0107,-0.0122,-0.0086,-0.0086,-0.0086,-0.0086,0,0.0414,0.0446,0.044,0.0461,0.0511,0.0478,0.0532,0.0517,0.052,0.0564,0.0467,0.0499,0.0333,0.0287,0.0156,0.0063,0.0082,-0.007,-0.0092,-0.0073,-0.0073,-0.0175,-0.0264,-0.0084,-0.0084,-0.0085,-0.0085,0,0.0501,0.0497,0.0541,0.0546,0.0555,0.0593,0.0623,0.0658,0.0653,0.0718,0.0726,0.0668,0.0616,0.0457,0.0329,0.0185,0.0023,0.0037,0.0086,0.0068,-0.0103,-0.0189,-0.0223,-0.0281,-0.0011,-0.0011,-0.001,0,0.0544,0.0582,0.0615,0.0648,0.0657,0.0703,0.0738,0.0732,0.078,0.0833,0.0882,0.0853,0.0853,0.0669,0.0423,0.023,0.008,0.0106,0.0006,-0.0078,-0.0191,-0.024,-0.0291,0.006,0.0061,0.0062,0.0062,0,0.062,0.0643,0.0675,0.0746,0.0794,0.0848,0.0904,0.0965,0.0986,0.1058,0.1151,0.1164,0.0988,0.0812,0.0526,0.0358,0.0036,0.0111,0.0008,-0.0138,-0.0176,-0.0253,0.0005,0.0068,0.0067,0.0067,0.0066,0.0066,0.0673,0.0717,0.077,0.0838,0.0898,0.0987,0.1053,0.1133,0.1241,0.1356,0.1361,0.1419,0.1145,0.076,0.0527,0.0123,0.0077,-0.0018,-0.0109,-0.0145,-0.0223,0.0063,0.0094,0.0094,0.0093,0.0093,0.0093,0,0.0721,0.078,0.0852,0.0932,0.1013,0.103,0.1153,0.1234,0.1387,0.151,0.1597,0.1531,0.1185,0.0799,0.025,-0.0037,-0.0157,-0.0197,-0.0264,-0.0307,-0.0048,-0.0069,-0.0053,-0.0053,-0.0053,-0.0053,-0.0053,-0.0052,0.0743,0.0833,0.087,0.1005,0.1071,0.1181,0.1259,0.1396,0.1513,0.1685,0.1749,0.1766,0.1504,0.0558,-0.0085,-0.0257,-0.0448,-0.0477,-0.0596,-0.043,-0.042,-0.0411,-0.0448,-0.0512,-0.0513,-0.0792,-0.0795,-0.0797]}],[{"header":{"parameterUnit":"m.s-1","parameterCategory":2,"la1":30.2991,"la2":30.254,"lo1":-89.0895,"lo2":-89.0444,"dy":0.0017,"dx":0.0017,"nx":28,"ny":28,"refTime":"2023-10-28T03:00:00:Z","depth":"2","parameterNumber":2,"parameterNumberName":"U-component_of_CURRENTS"},"data":[0,0,0,0,0,0,0,0,0,0,0,0,0,0,0,0,0,0,0,0,0,0,0,0,0,0,0,0,0,0,0,0,0,0,0,0,0,0,0,0,0,0,0,0,0,0,0,0,0,0,0,0,0,0,0,0,0,0,0.2582,0.2583,0,0.2606,0.2605,0.2605,0.2612,0.2612,0.2613,0.2614,0.2638,0.2638,0.2638,0,0,0,0,0,0,0,0,0,0,0,0,0,0.2546,0.2546,0.2582,0.2583,0.2584,0.2606,0.2605,0.2605,0.2612,0.2612,0.2613,0.2614,0.2638,0.2638,0.2638,0,0,0,0,0,0,0,0,0,0,0,0,0,0.2556,0.2546,0.2582,0.2597,0.26,0.2606,0.2605,0.2605,0.2611,0.2612,0.2614,0.2615,0.2638,0.2638,0.2638,0.2615,0,0,0.2638,0.2638,0,0,0,0,0,0,0,0,0.2555,0.2556,0.2594,0.2596,0.2599,0.2615,0.2602,0.2612,0.2611,0.2597,0.2614,0.2615,0.2636,0.2636,0.2625,0.2616,0.2618,0.2638,0.2638,0.2638,0.2638,0,0,0,0,0,0,0,0.2555,0.2555,0.2582,0.2595,0.2599,0.2605,0.2607,0.2603,0.2602,0.2598,0.2601,0.2619,0.2636,0.2625,0.2625,0.2618,0.2638,0.2638,0.2638,0.2638,0.2717,0.2719,0,0,0,0,0,0,0.2569,0.2554,0.2581,0.2583,0.259,0.2606,0.2607,0.2601,0.2603,0.2607,0.2618,0.2619,0.2624,0.2625,0.2626,0.2684,0.2638,0.2638,0.2638,0.2715,0.2718,0.272,0,0,0,0,0,0,0.2568,0.257,0.258,0.2579,0.2582,0.2606,0.2599,0.2601,0.2601,0.2619,0.2621,0.2618,0.2625,0.2627,0.2662,0.2682,0.2638,0.2638,0.2713,0.2716,0.2719,0.2745,0,0,0,0,0,0,0.2566,0.2569,0.2577,0.2579,0.2583,0.2598,0.2599,0.2601,0.2614,0.2616,0.262,0.2623,0.2626,0.2663,0.2662,0.2681,0.2638,0.271,0.2714,0.2718,0.2741,0.2748,0.2755,0,0,0,0,0,0.2564,0.2575,0.2576,0.2581,0.2589,0.2599,0.26,0.2616,0.2613,0.2616,0.2639,0.2623,0.2688,0.2664,0.2663,0.2682,0.2708,0.2713,0.2718,0.2738,0.2747,0.2755,0,0,0,0,0,0,0.2558,0.2578,0.2579,0.2593,0.2602,0.2604,0.262,0.2616,0.263,0.2648,0.2641,0.2646,0.2688,0.2686,0.2659,0.2723,0.2698,0.2703,0.2715,0.2723,0.2729,0.2733,0.2638,0,0,0,0,0,0.2562,0.2572,0.2588,0.2595,0.2606,0.2607,0.2616,0.2631,0.2645,0.265,0.2657,0.268,0.2703,0.2714,0.2736,0.2757,0.2759,0.2775,0.2782,0.2787,0.2794,0.283,0.284,0.2736,0.2736,0.2736,0,0,0.2561,0.2574,0.258,0.2595,0.2602,0.2617,0.2612,0.2641,0.2656,0.2653,0.268,0.2702,0.2717,0.2757,0.2774,0.2758,0.2818,0.2794,0.2798,0.2801,0.2836,0.2846,0.2854,0.2739,0.2739,0.2738,0,0,0.2564,0.2575,0.2588,0.2597,0.263,0.2641,0.2649,0.2668,0.2682,0.2711,0.2728,0.2765,0.2781,0.2807,0.2816,0.287,0.2855,0.2882,0.2909,0.2944,0.2952,0.296,0.2963,0.297,0.2881,0.2881,0.2881,0,0.2567,0.2574,0.2593,0.2604,0.2625,0.2648,0.2668,0.2679,0.2711,0.2729,0.2734,0.2792,0.2803,0.2848,0.288,0.2881,0.2895,0.2869,0.295,0.2958,0.2965,0.2966,0.2974,0.2883,0.2882,0.2882,0.2882,0,0.2568,0.2584,0.2593,0.2614,0.264,0.2663,0.2697,0.2727,0.275,0.2761,0.2819,0.2849,0.2884,0.2897,0.2902,0.2965,0.2956,0.2954,0.2921,0.2976,0.2975,0.2982,0.2885,0.2885,0.2884,0.2884,0,0,0.2539,0.2588,0.2587,0.2598,0.2653,0.2663,0.2718,0.2758,0.2781,0.2824,0.2859,0.2908,0.2932,0.2949,0.2971,0.3003,0.3057,0.3007,0.3008,0.2994,0.3124,0.3049,0.305,0.3076,0.3078,0.3079,0.3097,0,0.2531,0.2556,0.2592,0.2614,0.2634,0.2686,0.2719,0.2767,0.2812,0.2854,0.2901,0.2945,0.2948,0.2985,0.3019,0.3059,0.3082,0.3052,0.3087,0.3087,0.3002,0.3058,0.282,0.2811,0.3104,0.3106,0.3107,0,0.2513,0.2536,0.2568,0.2616,0.2629,0.2652,0.2724,0.2764,0.2841,0.2879,0.2945,0.2982,0.3054,0.3049,0.3123,0.3109,0.3123,0.3138,0.3139,0.3067,0.3028,0.2809,0.2814,0.3119,0.3118,0.3117,0.3116,0,0.2471,0.2513,0.254,0.2551,0.2615,0.2646,0.2692,0.2772,0.281,0.2915,0.2953,0.3033,0.3083,0.3131,0.3167,0.316,0.3234,0.3218,0.3155,0.3148,0.295,0.2923,0.3264,0.3264,0.3264,0.3264,0.3264,0,0.2443,0.2454,0.2516,0.252,0.2547,0.2618,0.2664,0.2725,0.2822,0.2865,0.2966,0.3017,0.3113,0.3163,0.3188,0.3193,0.3247,0.3169,0.3159,0.2951,0.2926,0.3198,0.319,0.3265,0.3265,0.3265,0.3265,0,0.239,0.243,0.2449,0.251,0.2528,0.2552,0.2638,0.2671,0.2776,0.2852,0.2893,0.3017,0.3092,0.3153,0.3229,0.3201,0.3225,0.3207,0.2946,0.2904,0.3106,0.31,0.3139,0.3137,0.3135,0.3133,0.3132,0,0.2364,0.2375,0.2422,0.2432,0.246,0.2506,0.2538,0.2641,0.2689,0.2836,0.2865,0.2979,0.3033,0.3107,0.3101,0.3117,0.3188,0.2883,0.2826,0.3113,0.3099,0.3095,0.3092,0.2564,0.2558,0.2554,0.255,0,0.2317,0.2339,0.2355,0.2376,0.24,0.2421,0.2485,0.2508,0.2635,0.2689,0.2774,0.2837,0.2927,0.2843,0.2873,0.2852,0.2865,0.2785,0.3162,0.264,0.2575,0.256,0.2574,0.2507,0.2511,0.2514,0.2517,0.2518,0.2278,0.2274,0.2299,0.2303,0.2325,0.2331,0.2314,0.2383,0.242,0.2479,0.2608,0.2609,0.2651,0.2582,0.2508,0.2452,0.2657,0.2528,0.2541,0.2559,0.2497,0.2433,0.2325,0.2328,0.233,0.2333,0.2335,0,0.2213,0.2217,0.2224,0.2213,0.2186,0.2237,0.2257,0.2218,0.2202,0.2293,0.2331,0.2162,0.2114,0.2157,0.201,0.2013,0.1982,0.1923,0.1857,0.1902,0.1942,0.1846,0.1502,0.1499,0.1496,0.1493,0,0,0.2181,0.2156,0.2147,0.2067,0.206,0.1991,0.1974,0.1941,0.196,0.1916,0.1892,0.204,0.2109,0.1778,0.1738,0.1591,0.1732,0.153,0.2205,0.2174,0.221,0.2306,0.2212,0,0,0,0,0]},{"header":{"parameterUnit":"m.s-1","parameterCategory":2,"la1":30.2991,"la2":30.254,"lo1":-89.0895,"lo2":-89.0444,"dy":0.0017,"dx":0.0017,"nx":28,"ny":28,"refTime":"2023-10-28T03:00:00:Z","depth":"2","parameterNumber":3,"parameterNumberName":"V-component_of_CURRENTS"},"data":[0,0,0,0,0,0,0,0,0,0,0,0,0,0,0,0,0,0,0,0,0,0,0,0,0,0,0,0,0,0,0,0,0,0,0,0,0,0,0,0,0,0,0,0,0,0,0,0,0,0,0,0,0,0,0,0,0,0,0.028,0.0279,0,0.0238,0.0238,0.0237,0.0218,0.0218,0.0218,0.0218,0.0161,0.016,0.0158,0,0,0,0,0,0,0,0,0,0,0,0,0,0.0309,0.0309,0.028,0.0279,0.0278,0.0238,0.0238,0.0237,0.0218,0.0218,0.0218,0.0218,0.0161,0.016,0.0158,0,0,0,0,0,0,0,0,0,0,0,0,0,0.0286,0.0309,0.028,0.0263,0.0261,0.0238,0.0238,0.0237,0.0218,0.0218,0.0218,0.0218,0.0162,0.016,0.0158,0.0148,0,0,0.0151,0.015,0,0,0,0,0,0,0,0,0.0288,0.0285,0.0266,0.0264,0.0261,0.0232,0.0227,0.0206,0.0218,0.0236,0.0218,0.0218,0.0182,0.0178,0.0174,0.0145,0.0143,0.0151,0.015,0.0149,0.0148,0,0,0,0,0,0,0,0.0289,0.0287,0.0265,0.0265,0.0262,0.0245,0.0242,0.0223,0.0212,0.0235,0.0233,0.0225,0.0181,0.0176,0.0172,0.0142,0.0151,0.0149,0.0148,0.0147,0.0102,0.0102,0,0,0,0,0,0,0.0293,0.0289,0.0266,0.0263,0.0272,0.0245,0.0242,0.0243,0.0212,0.0207,0.0226,0.0225,0.0179,0.0174,0.017,0.0171,0.0149,0.0147,0.0146,0.0102,0.0102,0.0102,0,0,0,0,0,0,0.0294,0.0292,0.0268,0.0273,0.0269,0.0245,0.0246,0.0242,0.0239,0.0205,0.02,0.0227,0.0179,0.0173,0.0155,0.0168,0.0146,0.0144,0.0101,0.0102,0.0102,0.0163,0,0,0,0,0,0,0.0295,0.0293,0.0294,0.0274,0.0268,0.0263,0.0246,0.0241,0.0234,0.0232,0.0204,0.0199,0.0178,0.0159,0.0153,0.0165,0.0142,0.0101,0.0102,0.0102,0.0161,0.0166,0.0169,0,0,0,0,0,0.0296,0.0303,0.0294,0.0291,0.0272,0.0263,0.0259,0.0242,0.0234,0.0238,0.0215,0.02,0.0155,0.0157,0.0151,0.0162,0.0101,0.0101,0.0102,0.016,0.0165,0.0169,0,0,0,0,0,0,0.0318,0.0301,0.0291,0.0292,0.028,0.0259,0.0259,0.0246,0.0232,0.0229,0.02,0.0193,0.0181,0.016,0.0163,0.0147,0.0126,0.0125,0.0172,0.0177,0.0181,0.0199,0.0141,0,0,0,0,0,0.0322,0.0325,0.0304,0.0307,0.0302,0.0281,0.0274,0.0263,0.0246,0.024,0.0219,0.0195,0.0176,0.0168,0.0145,0.0139,0.0113,0.014,0.0145,0.0148,0.0157,0.0125,0.0127,0.0102,0.0102,0.0102,0,0,0.0332,0.0322,0.0324,0.0311,0.0301,0.0303,0.0278,0.0273,0.0277,0.0235,0.0236,0.0206,0.0175,0.0168,0.0161,0.0154,0.0141,0.0148,0.0152,0.0159,0.0125,0.0128,0.013,0.0102,0.0102,0.0102,0,0,0.0356,0.0346,0.0355,0.0348,0.0332,0.0321,0.0322,0.0302,0.0297,0.0289,0.0259,0.0241,0.0213,0.0197,0.0184,0.0196,0.016,0.0184,0.0225,0.0194,0.0196,0.0197,0.0169,0.0167,0.0191,0.0191,0.0191,0,0.0367,0.0377,0.0357,0.0363,0.0364,0.0333,0.0346,0.0337,0.0314,0.0316,0.0297,0.0258,0.023,0.0225,0.0228,0.0207,0.018,0.0213,0.02,0.0201,0.0202,0.0172,0.0169,0.0194,0.0194,0.0193,0.0193,0,0.0398,0.0404,0.0411,0.0411,0.0409,0.0416,0.0399,0.0397,0.0384,0.0372,0.0361,0.032,0.03,0.0285,0.026,0.0253,0.0229,0.0207,0.0193,0.0208,0.0175,0.0172,0.0198,0.0197,0.0196,0.0196,0,0,0.0431,0.0432,0.0435,0.0448,0.0436,0.0443,0.0451,0.0454,0.0469,0.0437,0.0452,0.041,0.0384,0.0368,0.033,0.0303,0.028,0.0261,0.0258,0.0242,0.0208,0.0195,0.0189,0.0252,0.0251,0.0251,0.0184,0,0.0463,0.0488,0.048,0.0513,0.0527,0.0509,0.0526,0.0523,0.0513,0.0517,0.0475,0.0469,0.0417,0.0409,0.0373,0.0305,0.0272,0.03,0.0188,0.0185,0.0179,0.0186,0.0209,0.0152,0.0181,0.018,0.0179,0,0.05,0.0512,0.0548,0.0572,0.0579,0.0595,0.062,0.0629,0.0622,0.0615,0.0594,0.0555,0.0518,0.0468,0.0364,0.0382,0.0303,0.0243,0.0239,0.0204,0.0165,0.0139,0.0144,0.0173,0.0173,0.0174,0.0174,0,0.0544,0.0566,0.06,0.0607,0.0624,0.0646,0.0659,0.0663,0.0687,0.0677,0.069,0.0628,0.0608,0.0503,0.0381,0.037,0.026,0.0228,0.0141,0.0139,0.0127,0.0125,0.0151,0.0151,0.0151,0.0151,0.0152,0,0.0585,0.0614,0.0626,0.0648,0.07,0.0696,0.0752,0.0754,0.077,0.0811,0.0746,0.0759,0.0614,0.0535,0.0408,0.0271,0.0279,0.0153,0.0123,0.0149,0.0149,0.0141,0.0141,0.0149,0.0149,0.015,0.015,0,0.0628,0.0634,0.0678,0.0707,0.0724,0.0763,0.0817,0.0855,0.086,0.091,0.0913,0.0856,0.0758,0.0605,0.0438,0.0319,0.018,0.0124,0.0167,0.0144,0.0071,0.0074,0.0024,0.0023,0.0022,0.0021,0.002,0,0.065,0.0678,0.0727,0.076,0.0778,0.0834,0.0878,0.0901,0.0948,0.0977,0.1009,0.0934,0.0898,0.065,0.043,0.0214,0.0177,0.0081,0.0063,0.0083,0.0058,0.0063,0.0068,0.0067,0.0067,0.0067,0.0067,0,0.0694,0.0714,0.0748,0.0816,0.087,0.0933,0.0999,0.1051,0.1089,0.1131,0.1167,0.1141,0.0924,0.0716,0.0419,0.0267,0.0118,0.0071,0.008,0.01,0.0119,0.0097,0.0101,0.0066,0.0066,0.0066,0.0066,0.0066,0.0729,0.0761,0.0809,0.0874,0.0937,0.1021,0.1084,0.1157,0.1241,0.1303,0.128,0.1239,0.1012,0.0636,0.0384,0.0111,0.0122,0.0017,0.0019,0.0021,0.0042,0.0059,-0.0002,-0.0002,-0.0002,-0.0002,-0.0002,0,0.0765,0.0803,0.0863,0.0939,0.1009,0.104,0.1156,0.1221,0.1325,0.1372,0.1396,0.1174,0.0947,0.0674,0.0283,0.0052,0.0032,-0.0035,-0.0002,0.0001,0.0004,0.0025,-0.0025,-0.0025,-0.0026,-0.0027,0,0,0.0784,0.0842,0.0868,0.098,0.104,0.1142,0.1211,0.1307,0.137,0.1412,0.1385,0.1341,0.1026,0.0738,0.043,0.0203,0.015,0.015,0.0194,0.0274,0.0278,0.006,0.0101,0,0,0,0,0]}],[{"header":{"parameterUnit":"m.s-1","parameterCategory":2,"la1":30.2991,"la2":30.254,"lo1":-89.0895,"lo2":-89.0444,"dy":0.0017,"dx":0.0017,"nx":28,"ny":28,"refTime":"2023-10-28T03:00:00:Z","depth":"4","parameterNumber":2,"parameterNumberName":"U-component_of_CURRENTS"},"data":[0,0,0,0,0,0,0,0,0,0,0,0,0,0,0,0,0,0,0,0,0,0,0,0,0,0,0,0,0,0,0,0,0,0,0,0,0,0,0,0,0,0,0,0,0,0,0,0,0,0,0,0,0,0,0,0,0,0,0.1566,0.1566,0,0.1564,0.1563,0.1563,0.1579,0.1579,0.158,0.1581,0.1596,0.1596,0.1595,0,0,0,0,0,0,0,0,0,0,0,0,0,0.1515,0.1516,0.1566,0.1566,0.1567,0.1564,0.1563,0.1563,0.1578,0.158,0.1581,0.1582,0.1596,0.1596,0.1595,0,0,0,0,0,0,0,0,0,0,0,0,0,0.1523,0.1516,0.1566,0.1578,0.158,0.1564,0.1563,0.1562,0.1578,0.158,0.1581,0.1582,0.1596,0.1596,0.1595,0.1562,0,0,0.1593,0.1592,0,0,0,0,0,0,0,0,0.1522,0.1524,0.1576,0.1577,0.1579,0.1578,0.1551,0.1565,0.1578,0.1573,0.1581,0.1583,0.1594,0.1593,0.1582,0.1563,0.1564,0.1593,0.1592,0.1592,0.1592,0,0,0,0,0,0,0,0.1522,0.1524,0.156,0.1576,0.1578,0.1561,0.1563,0.1553,0.1572,0.1574,0.1576,0.1584,0.1594,0.1583,0.1583,0.1564,0.1593,0.1592,0.1592,0.1591,0.1637,0.1638,0,0,0,0,0,0,0.1535,0.1524,0.156,0.156,0.156,0.1561,0.1564,0.1572,0.1572,0.1574,0.1583,0.1585,0.1583,0.1583,0.1583,0.1649,0.1592,0.1591,0.1591,0.1635,0.1637,0.1639,0,0,0,0,0,0,0.1534,0.1538,0.156,0.1546,0.1548,0.1562,0.157,0.1572,0.1601,0.1579,0.1582,0.1616,0.1584,0.1584,0.1609,0.1646,0.1591,0.159,0.1633,0.1636,0.1638,0.1715,0,0,0,0,0,0,0.1532,0.1538,0.1559,0.1547,0.155,0.1577,0.1569,0.1571,0.1603,0.1607,0.1608,0.1608,0.1585,0.161,0.1608,0.1644,0.159,0.1631,0.1634,0.1637,0.171,0.1719,0.1728,0,0,0,0,0,0.153,0.1548,0.1559,0.1565,0.1575,0.1579,0.1578,0.1588,0.1604,0.1619,0.1625,0.161,0.1629,0.1611,0.1608,0.1645,0.163,0.1633,0.1637,0.1706,0.1718,0.1727,0,0,0,0,0,0,0.1535,0.1551,0.1564,0.1586,0.1598,0.1584,0.1602,0.1611,0.1625,0.1639,0.1622,0.1623,0.166,0.1642,0.1623,0.1669,0.163,0.1633,0.1684,0.1694,0.1703,0.17,0.1589,0,0,0,0,0,0.1547,0.157,0.1577,0.1601,0.161,0.1615,0.1625,0.1633,0.1639,0.1648,0.1652,0.1658,0.1664,0.1674,0.1671,0.169,0.1685,0.1716,0.1724,0.1732,0.1729,0.1764,0.1776,0.1651,0.1651,0.1651,0,0,0.1558,0.1571,0.1586,0.1605,0.1614,0.1627,0.1624,0.165,0.1669,0.1646,0.1685,0.1689,0.1677,0.1702,0.1718,0.1697,0.1768,0.1737,0.1743,0.1736,0.1769,0.1781,0.1792,0.1654,0.1653,0.1653,0,0,0.1575,0.1603,0.1621,0.1635,0.1661,0.1661,0.1681,0.1693,0.1712,0.1741,0.1736,0.1765,0.1772,0.177,0.1769,0.1824,0.1813,0.1837,0.1877,0.1912,0.1923,0.1932,0.195,0.196,0.1841,0.1841,0.1841,0,0.159,0.1611,0.1628,0.1645,0.1661,0.1684,0.1701,0.1718,0.174,0.1758,0.1769,0.1802,0.18,0.1825,0.185,0.1844,0.1859,0.1838,0.1924,0.1932,0.194,0.1957,0.1967,0.1845,0.1844,0.1844,0.1844,0,0.1606,0.1636,0.165,0.168,0.1697,0.1721,0.1743,0.1778,0.1811,0.1821,0.1873,0.1875,0.1896,0.1909,0.1896,0.1954,0.1946,0.1932,0.1896,0.1958,0.1971,0.198,0.1851,0.1849,0.1848,0.1847,0,0,0.1605,0.1652,0.1662,0.1681,0.172,0.1731,0.1778,0.181,0.1851,0.1887,0.1932,0.1958,0.1976,0.1977,0.1979,0.2009,0.2085,0.2005,0.2005,0.2021,0.2165,0.2035,0.2032,0.2098,0.21,0.2101,0.2155,0,0.1615,0.1652,0.1674,0.1714,0.1729,0.1768,0.1805,0.1843,0.1887,0.1938,0.1963,0.2007,0.1998,0.203,0.206,0.2082,0.2112,0.2071,0.2104,0.2104,0.198,0.2039,0.2107,0.2161,0.2163,0.2165,0.2166,0,0.1616,0.1641,0.1683,0.1728,0.1741,0.1776,0.1844,0.1881,0.1951,0.1989,0.204,0.2064,0.212,0.2107,0.2174,0.2156,0.217,0.2177,0.218,0.2033,0.199,0.2085,0.2182,0.2181,0.2179,0.2178,0.2177,0,0.159,0.1642,0.1679,0.1697,0.1754,0.1794,0.1835,0.1904,0.1943,0.2037,0.2081,0.2138,0.219,0.2219,0.2246,0.2229,0.2311,0.2281,0.2169,0.216,0.2226,0.2216,0.2324,0.2324,0.2324,0.2324,0.2324,0,0.1572,0.1604,0.168,0.17,0.1747,0.1795,0.1861,0.1915,0.1996,0.2039,0.2115,0.2156,0.2229,0.2276,0.228,0.2254,0.2342,0.2181,0.2168,0.2258,0.2251,0.2233,0.2222,0.2326,0.2325,0.2325,0.2325,0,0.1532,0.1586,0.1629,0.1708,0.1737,0.1776,0.1866,0.1905,0.2003,0.2068,0.2104,0.2201,0.2261,0.2305,0.2361,0.2288,0.2281,0.2248,0.2351,0.2343,0.2096,0.2088,0.2117,0.2112,0.2109,0.2106,0.2104,0,0.1508,0.1534,0.163,0.1658,0.1703,0.1769,0.1807,0.19,0.1937,0.207,0.2087,0.2192,0.2239,0.2205,0.227,0.2264,0.2233,0.221,0.2134,0.2091,0.2077,0.2074,0.2072,0.2098,0.2097,0.2096,0.2095,0,0.1461,0.1521,0.1562,0.1621,0.1671,0.1705,0.1772,0.1783,0.1886,0.1994,0.2013,0.2032,0.2094,0.2118,0.2138,0.2127,0.2211,0.2172,0.2178,0.2107,0.2069,0.2058,0.2059,0.2083,0.2085,0.2086,0.2087,0,0.1435,0.1455,0.1524,0.1556,0.1615,0.1616,0.1658,0.1687,0.1727,0.1862,0.1869,0.1973,0.2076,0.2049,0.2068,0.2051,0.2005,0.1919,0.1937,0.1951,0.187,0.1796,0.1721,0,0,0,0,0,0.1389,0.1404,0.1442,0.1461,0.1514,0.1541,0.1618,0.1661,0.176,0.1725,0.1785,0.1827,0.1843,0.1901,0.1848,0.2002,0.2024,0.1931,0.1936,0.2017,0.2031,0.195,0,0,0,0,0,0,0.1356,0.1407,0.1412,0.1373,0.1367,0.1399,0.1443,0.1511,0.1493,0.1608,0.1628,0.1714,0.1764,0.1854,0.1813,0.183,0.1793,0.1999,0.1994,0.2009,0.2022,0.2033,0.1955,0,0,0,0,0]},{"header":{"parameterUnit":"m.s-1","parameterCategory":2,"la1":30.2991,"la2":30.254,"lo1":-89.0895,"lo2":-89.0444,"dy":0.0017,"dx":0.0017,"nx":28,"ny":28,"refTime":"2023-10-28T03:00:00:Z","depth":"4","parameterNumber":3,"parameterNumberName":"V-component_of_CURRENTS"},"data":[0,0,0,0,0,0,0,0,0,0,0,0,0,0,0,0,0,0,0,0,0,0,0,0,0,0,0,0,0,0,0,0,0,0,0,0,0,0,0,0,0,0,0,0,0,0,0,0,0,0,0,0,0,0,0,0,0,0,0.0279,0.0279,0,0.0269,0.0269,0.0269,0.027,0.027,0.027,0.027,0.0255,0.0254,0.0254,0,0,0,0,0,0,0,0,0,0,0,0,0,0.0284,0.0284,0.0279,0.0279,0.0279,0.0269,0.0269,0.0269,0.027,0.027,0.027,0.027,0.0255,0.0254,0.0254,0,0,0,0,0,0,0,0,0,0,0,0,0,0.0279,0.0284,0.0279,0.0277,0.0277,0.0269,0.0269,0.0269,0.027,0.027,0.027,0.027,0.0255,0.0254,0.0254,0.0247,0,0,0.0252,0.0251,0,0,0,0,0,0,0,0,0.028,0.0279,0.0278,0.0277,0.0277,0.027,0.0265,0.0261,0.027,0.0273,0.027,0.027,0.0259,0.0258,0.0257,0.0247,0.0246,0.0252,0.0251,0.0251,0.0251,0,0,0,0,0,0,0,0.028,0.028,0.0276,0.0277,0.0277,0.0272,0.0272,0.0265,0.0266,0.0273,0.0273,0.027,0.0259,0.0258,0.0257,0.0246,0.0252,0.0251,0.0251,0.025,0.0248,0.0248,0,0,0,0,0,0,0.028,0.028,0.0276,0.0276,0.0278,0.0272,0.0272,0.0273,0.0266,0.0265,0.027,0.0271,0.0259,0.0257,0.0256,0.027,0.0251,0.025,0.025,0.0247,0.0248,0.0248,0,0,0,0,0,0,0.028,0.028,0.0277,0.0277,0.0276,0.0272,0.0273,0.0273,0.0277,0.0264,0.0263,0.0276,0.0259,0.0257,0.0258,0.0268,0.025,0.0249,0.0247,0.0247,0.0248,0.0283,0,0,0,0,0,0,0.0281,0.028,0.0284,0.0277,0.0276,0.0279,0.0273,0.0272,0.0275,0.0275,0.0268,0.0267,0.0259,0.0259,0.0257,0.0267,0.0249,0.0246,0.0247,0.0248,0.0282,0.0285,0.0288,0,0,0,0,0,0.0281,0.0288,0.0285,0.0284,0.0281,0.0279,0.0278,0.0276,0.0275,0.028,0.0276,0.0267,0.0262,0.0259,0.0256,0.0266,0.0246,0.0247,0.0248,0.028,0.0284,0.0288,0,0,0,0,0,0,0.0294,0.0288,0.0285,0.029,0.0286,0.0279,0.0284,0.028,0.028,0.0284,0.0271,0.027,0.0273,0.0264,0.0261,0.0267,0.0253,0.0253,0.0278,0.0282,0.0285,0.029,0.0248,0,0,0,0,0,0.0297,0.0303,0.0293,0.03,0.0298,0.0292,0.0291,0.029,0.0287,0.0288,0.0282,0.0278,0.0273,0.0274,0.0267,0.0271,0.0244,0.0276,0.0279,0.0282,0.0285,0.0247,0.0247,0.0251,0.0251,0.0251,0,0,0.0306,0.0302,0.0306,0.0303,0.0301,0.0306,0.0293,0.0298,0.0306,0.0286,0.0297,0.0286,0.0275,0.028,0.0281,0.0277,0.0267,0.0283,0.0285,0.0286,0.0248,0.0248,0.0247,0.0251,0.0251,0.0251,0,0,0.0323,0.0321,0.033,0.0328,0.0326,0.0322,0.0325,0.032,0.0323,0.0328,0.0316,0.0311,0.0308,0.0301,0.0297,0.0312,0.0281,0.0312,0.0336,0.0301,0.03,0.0299,0.0262,0.0258,0.0318,0.0318,0.0318,0,0.0332,0.0342,0.0332,0.0339,0.0344,0.0332,0.0345,0.0343,0.0341,0.0345,0.0338,0.0328,0.0317,0.032,0.0326,0.0319,0.0292,0.0324,0.0304,0.0302,0.0301,0.0263,0.0258,0.032,0.032,0.0319,0.0319,0,0.0353,0.0362,0.0369,0.0374,0.0378,0.0389,0.0384,0.0389,0.0389,0.0385,0.0386,0.0367,0.0362,0.0357,0.0348,0.0338,0.032,0.0308,0.0294,0.0302,0.0263,0.0256,0.0322,0.0322,0.0321,0.0321,0,0,0.0372,0.0381,0.0385,0.0398,0.0401,0.041,0.0422,0.0429,0.0443,0.043,0.0441,0.0425,0.0411,0.0405,0.0388,0.036,0.0323,0.0335,0.0332,0.0298,0.024,0.0234,0.0226,0.0306,0.0305,0.0304,0.0217,0,0.0393,0.0416,0.0416,0.0448,0.0461,0.0459,0.0474,0.048,0.0478,0.0482,0.0457,0.0459,0.0431,0.0432,0.0398,0.0346,0.0308,0.0348,0.0238,0.0235,0.0227,0.0219,0.0302,0.0212,0.021,0.0209,0.0208,0,0.0416,0.0429,0.0463,0.0491,0.0498,0.0518,0.0545,0.0557,0.0553,0.0551,0.0538,0.0513,0.0482,0.0452,0.0357,0.0384,0.0315,0.0265,0.026,0.0238,0.0216,0.0202,0.0196,0.0197,0.0198,0.0199,0.02,0,0.0442,0.0467,0.0499,0.0508,0.0533,0.0557,0.0574,0.0583,0.0604,0.0596,0.0604,0.0554,0.0539,0.0446,0.0349,0.035,0.0233,0.0218,0.0142,0.014,0.0157,0.0159,0.0135,0.0135,0.0135,0.0136,0.0136,0,0.0465,0.0493,0.0518,0.0538,0.0587,0.0593,0.0644,0.065,0.0665,0.0693,0.0646,0.0647,0.0535,0.046,0.0357,0.0235,0.0234,0.0142,0.0117,0.0174,0.0179,0.0152,0.0155,0.0132,0.0133,0.0134,0.0134,0,0.0488,0.0502,0.0545,0.0582,0.0603,0.064,0.0697,0.0727,0.0735,0.0767,0.0769,0.0715,0.0619,0.0495,0.0344,0.0255,0.0132,0.0084,0.0156,0.0137,0.0058,0.0064,-0.0013,-0.0014,-0.0014,-0.0015,-0.0016,0,0.0498,0.0523,0.0582,0.0615,0.0639,0.0695,0.0736,0.0764,0.0796,0.0809,0.0824,0.0749,0.0695,0.0481,0.0344,0.0139,0.0109,0.0036,0.0042,0.0059,0.0042,0.005,0.0057,-0.0017,-0.0017,-0.0017,-0.0018,0,0.0519,0.0547,0.058,0.0647,0.0701,0.0759,0.0819,0.0847,0.0878,0.0888,0.0865,0.0761,0.065,0.0484,0.0326,0.018,0.008,0.0026,0.0027,0.0032,0.0053,0.0039,0.0046,-0.002,-0.002,-0.002,-0.002,0,0.0538,0.0564,0.0614,0.0672,0.0741,0.0801,0.0833,0.0868,0.0898,0.0908,0.0898,0.0783,0.0718,0.0505,0.0362,0.0217,0.0175,0.0116,0.0111,0.0113,0.0176,0.0223,0.0177,0,0,0,0,0,0.0548,0.0578,0.0632,0.0694,0.0763,0.0803,0.0877,0.0901,0.0934,0.0922,0.0911,0.0808,0.0604,0.052,0.0373,0.0334,0.0143,0.0155,0.0072,-0.0036,-0.0033,0.0019,0,0,0,0,0,0,0.0553,0.0605,0.0626,0.0701,0.0746,0.0821,0.087,0.0895,0.0887,0.09,0.0796,0.0755,0.0559,0.0684,0.0364,0.0322,0.0245,0.0066,0.0062,-0.0038,-0.0035,-0.0033,0.0022,0,0,0,0,0]}]]